Weather History for Coleman, TX

Change the Weather History Date:

Friday, July 19, 2013

  Actual Average (KABI) Record (KABI)
Temperature  
Mean Temperature 79 °F 83 °F  
Max Temperature 89 °F 95 °F 108 °F (1936)
Min Temperature 69 °F 72 °F 65 °F (1984)
Degree Days  
Heating Degree Days 0 0  
Month to date heating degree days 0  
Since 1 June heating degree days 1  
Since 1 July heating degree days 0  
Cooling Degree Days 14 18  
Month to date cooling degree days 335  
Year to date cooling degree days 1167  
Since 1 June cooling degree days 770  
Growing Degree Days 29 (Base 50)    
Moisture  
Dew Point 66 °F    
Average Humidity 66    
Maximum Humidity 93    
Minimum Humidity 38    
Precipitation  
Precipitation 0.00 in 0.05 in 1.45 in (1968)
Month to date precipitation 1.18  
Year to date precipitation 13.68  
Sea Level Pressure  
Sea Level Pressure 30.06 in    
Wind  
Wind Speed 2 mph (South)    
Max Wind Speed 10 mph    
Max Gust Speed -    
Visibility 10 miles    
Events      
T = Trace of Precipitation, MM = Missing Value Source: NWS Daily Summary

Daily Weather History Graph

Daily Weather History Graph

Search for Another Location

Airport:

Trip Planner

Search our weather history database for the weather conditions in past years. The results will help you decide how hot, cold, wet, or windy it might be!

Date:

Astronomy

Jul. 19, 2013 Rise Set
Actual Time 6:45 AM CDT 8:42 PM CDT
Civil Twilight 6:17 AM CDT 9:09 PM CDT
Nautical Twilight 5:44 AM CDT 9:42 PM CDT
Astronomical Twilight 5:09 AM CDT 10:18 PM CDT
Moon 5:47 PM CDT 3:26 AM CDT
Length of Visible Light 14h 51m
Length of Day
13h 57m
Waxing Gibbous, 87% of the Moon is Illuminated
Jul 19
Waxing Gibbous
Jul 22
Full
Jul 29
Last Quarter
Aug 6
New
Aug 14
First Quarter

Hourly Weather History & Observations

Time (CDT) Temp. Heat Index Dew Point Humidity Pressure Visibility Wind Dir Wind Speed Gust Speed Precip Events Conditions
12:15 AM 74.3 °F - 69.1 °F 84% 30.11 in 10.0 mi Calm Calm - N/A   Clear
12:35 AM 73.8 °F - 69.4 °F 86% 30.11 in 10.0 mi WNW 3.5 mph - N/A   Clear
12:55 AM 73.4 °F - 69.4 °F 87% 30.10 in 10.0 mi WNW 3.5 mph - N/A   Clear
1:15 AM 73.2 °F - 69.8 °F 89% 30.10 in 10.0 mi Calm Calm - N/A   Clear
1:35 AM 73.4 °F - 69.1 °F 86% 30.10 in 10.0 mi Calm Calm - N/A   Mostly Cloudy
1:55 AM 72.7 °F - 69.3 °F 89% 30.10 in 10.0 mi WNW 3.5 mph - N/A   Scattered Clouds
2:15 AM 72.5 °F - 69.1 °F 89% 30.10 in 10.0 mi WNW 3.5 mph - N/A   Clear
2:35 AM 72.1 °F - 69.1 °F 90% 30.10 in 10.0 mi West 3.5 mph - N/A   Clear
2:55 AM 72.3 °F - 69.1 °F 89% 30.10 in 10.0 mi Calm Calm - N/A   Mostly Cloudy
3:15 AM 71.8 °F - 68.9 °F 91% 30.10 in 10.0 mi Calm Calm - N/A   Scattered Clouds
3:35 AM 71.8 °F - 68.9 °F 91% 30.10 in 10.0 mi WNW 3.5 mph - N/A   Clear
3:55 AM 71.6 °F - 68.5 °F 90% 30.09 in 10.0 mi WNW 3.5 mph - N/A   Clear
4:15 AM 71.2 °F - 68.2 °F 90% 30.09 in 10.0 mi West 4.6 mph - N/A   Clear
4:35 AM 71.1 °F - 67.8 °F 89% 30.08 in 10.0 mi West 6.9 mph - N/A   Clear
4:55 AM 70.9 °F - 67.3 °F 88% 30.08 in 10.0 mi West 3.5 mph - N/A   Clear
5:15 AM 71.2 °F - 67.1 °F 87% 30.08 in 10.0 mi Calm Calm - N/A   Clear
5:35 AM 70.2 °F - 67.6 °F 92% 30.08 in 2.0 mi Calm Calm - N/A   Clear
5:55 AM 70.0 °F - 67.5 °F 92% 30.09 in 10.0 mi Calm Calm - N/A   Clear
6:15 AM 69.8 °F - 67.8 °F 93% 30.09 in 10.0 mi Calm Calm - N/A   Clear
6:35 AM 69.3 °F - 67.3 °F 93% 30.10 in 10.0 mi Calm Calm - N/A   Clear
6:55 AM 69.3 °F - 67.3 °F 93% 30.10 in 7.0 mi Calm Calm - N/A   Clear
7:15 AM 69.8 °F - 67.5 °F 92% 30.10 in 10.0 mi Calm Calm - N/A   Clear
7:35 AM 70.7 °F - 68.0 °F 91% 30.11 in 10.0 mi Calm Calm - N/A   Clear
7:55 AM 72.0 °F - 68.2 °F 88% 30.11 in 10.0 mi Calm Calm - N/A   Clear
8:15 AM 73.4 °F - 68.2 °F 84% 30.12 in 10.0 mi Calm Calm - N/A   Clear
8:35 AM 74.8 °F - 67.8 °F 79% 30.12 in 10.0 mi Calm Calm - N/A   Clear
8:55 AM 76.3 °F - 68.5 °F 77% 30.12 in 10.0 mi Calm Calm - N/A   Clear
9:15 AM 78.6 °F - 67.6 °F 69% 30.12 in 10.0 mi SSW 8.1 mph - N/A   Clear
9:35 AM 79.2 °F - 68.0 °F 69% 30.12 in 10.0 mi SSW 5.8 mph - N/A   Clear
9:55 AM 79.9 °F - 67.6 °F 66% 30.12 in 10.0 mi South 5.8 mph - N/A   Clear
10:15 AM 80.8 °F 83.6 °F 68.5 °F 66% 30.12 in 10.0 mi South 6.9 mph - N/A   Clear
10:35 AM 80.8 °F 83.3 °F 67.5 °F 64% 30.12 in 10.0 mi Calm Calm - N/A   Clear
10:55 AM 81.9 °F 84.6 °F 67.6 °F 62% 30.12 in 7.0 mi SSW 5.8 mph - N/A   Clear
11:15 AM 82.8 °F 84.7 °F 65.7 °F 56% 30.11 in 10.0 mi South 4.6 mph - N/A   Clear
11:35 AM 83.5 °F 86.0 °F 66.9 °F 57% 30.11 in 10.0 mi SSW 5.8 mph - N/A   Clear
11:55 AM 82.6 °F 84.5 °F 65.7 °F 56% 30.11 in 10.0 mi SW 10.4 mph - N/A   Scattered Clouds
12:15 PM 83.8 °F 85.8 °F 65.7 °F 54% 30.10 in 10.0 mi South 5.8 mph - N/A   Scattered Clouds
12:35 PM 84.0 °F 86.0 °F 65.5 °F 54% 30.09 in 10.0 mi South 3.5 mph - N/A   Scattered Clouds
12:55 PM 84.7 °F 86.8 °F 66.0 °F 53% 30.09 in 10.0 mi SSE 4.6 mph - N/A   Scattered Clouds
1:15 PM 85.3 °F 87.4 °F 65.8 °F 52% 30.09 in 10.0 mi SE 4.6 mph - N/A   Scattered Clouds
1:35 PM 85.8 °F 87.6 °F 65.1 °F 50% 30.08 in 10.0 mi South 10.4 mph - N/A   Scattered Clouds
1:55 PM 86.4 °F 88.4 °F 65.5 °F 50% 30.08 in 10.0 mi SSE 8.1 mph - N/A   Scattered Clouds
2:15 PM 86.5 °F 87.8 °F 64.2 °F 47% 30.07 in 10.0 mi South 5.8 mph - N/A   Clear
2:35 PM 88.0 °F 89.6 °F 64.6 °F 46% 30.06 in 10.0 mi South 5.8 mph - N/A   Scattered Clouds
2:55 PM 87.4 °F 88.0 °F 62.2 °F 43% 30.06 in 10.0 mi SE 4.6 mph - N/A   Scattered Clouds
3:15 PM 87.1 °F 87.8 °F 62.6 °F 44% 30.05 in 10.0 mi Calm Calm - N/A   Mostly Cloudy
3:35 PM 88.2 °F 88.7 °F 62.2 °F 42% 30.04 in 10.0 mi Calm Calm - N/A   Scattered Clouds
3:55 PM 88.7 °F 88.8 °F 61.2 °F 40% 30.03 in 10.0 mi Calm Calm - N/A   Clear
4:15 PM 88.7 °F 88.8 °F 61.2 °F 40% 30.03 in 10.0 mi Calm Calm - N/A   Clear
4:35 PM 87.6 °F 87.4 °F 60.6 °F 40% 30.01 in 10.0 mi Calm Calm - N/A   Clear
4:55 PM 89.2 °F 89.6 °F 61.7 °F 40% 30.00 in 10.0 mi South 5.8 mph - N/A   Clear
5:15 PM 89.4 °F 89.8 °F 61.9 °F 40% 29.99 in 10.0 mi Calm Calm - N/A   Clear
5:35 PM 89.8 °F 90.0 °F 61.9 °F 39% 29.98 in 10.0 mi ESE 4.6 mph - N/A   Scattered Clouds
5:55 PM 89.6 °F 89.5 °F 61.0 °F 38% 29.98 in 10.0 mi SSW 4.6 mph - N/A   Scattered Clouds
6:15 PM 88.3 °F 88.9 °F 62.2 °F 42% 29.97 in 10.0 mi South 3.5 mph - N/A   Scattered Clouds
6:35 PM 87.8 °F 88.2 °F 62.2 °F 42% 29.97 in 10.0 mi SE 4.6 mph - N/A   Mostly Cloudy
6:55 PM 88.9 °F 89.4 °F 62.1 °F 41% 29.96 in 10.0 mi East 6.9 mph - N/A   Mostly Cloudy
7:15 PM 88.7 °F 88.8 °F 61.2 °F 40% 29.97 in 10.0 mi East 3.5 mph - N/A   Scattered Clouds
7:35 PM 88.2 °F 87.8 °F 60.3 °F 39% 29.97 in 10.0 mi Calm Calm - N/A   Clear
7:55 PM 86.2 °F 87.6 °F 64.4 °F 48% 29.97 in 10.0 mi SE 4.6 mph - N/A   Clear
8:15 PM 84.4 °F 87.6 °F 68.0 °F 58% 29.97 in 10.0 mi Calm Calm - N/A   Clear
8:35 PM 83.8 °F 86.3 °F 66.6 °F 56% 29.97 in 2.0 mi Calm Calm - N/A   Haze
8:55 PM 83.3 °F 85.1 °F 64.9 °F 54% 29.98 in 2.0 mi Calm Calm - N/A   Haze
9:15 PM 82.6 °F 84.5 °F 65.5 °F 56% 29.98 in 10.0 mi Calm Calm - N/A   Clear
9:35 PM 82.8 °F 84.2 °F 64.0 °F 53% 29.98 in 10.0 mi Calm Calm - N/A   Clear
9:55 PM 80.1 °F 82.1 °F 66.0 °F 62% 29.99 in 10.0 mi Calm Calm - N/A   Clear
10:15 PM 78.1 °F - 69.6 °F 75% 29.99 in 10.0 mi Calm Calm - N/A   Clear
10:35 PM 76.8 °F - 70.0 °F 79% 30.00 in 10.0 mi SE 4.6 mph - N/A   Clear
10:55 PM 78.1 °F - 66.4 °F 67% 30.01 in 10.0 mi SSE 3.5 mph - N/A   Clear
11:15 PM 77.9 °F - 64.4 °F 63% 30.01 in 10.0 mi SSE 6.9 mph - N/A   Clear
11:35 PM 77.9 °F - 63.7 °F 61% 30.02 in 10.0 mi SSE 6.9 mph - N/A   Clear
11:55 PM 77.0 °F - 64.4 °F 65% 30.03 in 10.0 mi South 4.6 mph - N/A   Clear